Weather in Zelenogorskiy

Russia / Kemerovo Oblast     55°00′14″N   86°56′53″E
temp.,
°C
wind,
m/s
gust,
m/s
humid.,
%
clouds,
%
prec.,
mm/h
press.,
hPa
HPBL,
m
26 february, fri
fri2601:00−18ssw51289100 0.1 10241408
04:00−20sw41484100 0.0 10242013
07:00−22sw51186100 0.1 10271547
10:00−22sw61286100 0.1 10291642
13:00−22sw61182100 0.1 10311310
16:00−21sw61288100 0.1 10321408
19:00−21sw51092100 0.4 10341331
22:00−22sw3996100 0.1 1036789
27 february, sat
sat2701:00−22sw4896100 0.3 1036980
04:00−22ssw4896100 0.3 1036927
07:00−23ssw4996100 0.6 1037820
10:00−22sw4894100 0.3 1037825
13:00−21sw4790100 0.5 1037888
16:00−20sw4788100 0.2 1037912
19:00−21ssw2795100 0.3 1038445
22:00−21ssw3795100 0.1 1039406
28 february, sun
sun2801:00−22ssw2798100 0.3 1039298
04:00−23ssw2698100 0.1 1040287
07:00−25s2497100 0.1 1040107
10:00−24sse249492 0.0 1040240
13:00−18s368791 0.0 1038561
16:00−14s2583100 0.0 1035663
19:00−16ese2293100 0.0 103422
22:00−16ese2397100 0.1 103292
1 march, mon
mon101:00−15ese2597100 0.4 1028168
04:00−13ese2596100 0.4 1025189
07:00−11se3796100 0.9 1022280
10:00−9se3795100 1.3 1018320
13:00−5sse3894100 2.7 1015609
16:00−3s4895100 2.0 1013653
19:00−3s41096100 5.0 1011675
22:00−2sw51487100 1.7 1011766
2 march, tue
tue201:00−3sw51390100 1.9 1011795
04:00−3ssw41291100 0.3 1009662
07:00−3ssw41196100 2.5 1008798
10:00−1sw61296100 3.4 1008883
13:00−2wsw61190100 5.2 1010945
16:00−3wnw5995100 1.6 1012713
19:00−6wnw31095100 3.4 1013670
22:00−9w2996100 0.8 1015554